Weather History for YFRT - March, 2013

Change the Weather History Date:

Sunday, March 31, 2013

  Actual Average Record
Temperature  
Mean Temperature 65 °F -  
Max Temperature 78 °F - - ()
Min Temperature 52 °F - - ()
Growing Degree Days 15 (Base 50)    
Moisture  
Dew Point 50 °F    
Average Humidity 62    
Maximum Humidity 100    
Minimum Humidity 20    
Precipitation  
Precipitation 0.00 in - - ()
Sea Level Pressure  
Sea Level Pressure 30.16 in    
Wind  
Wind Speed 6 mph ()    
Max Wind Speed 13 mph    
Max Gust Speed -    
T = Trace of Precipitation, MM = Missing Value Source: Averaged Metar Reports

Daily Weather History Graph

Daily Weather History Graph

Search for Another Location

Airport or City:

Trip Planner

Search our weather history database for the weather conditions in past years. The results will help you decide how hot, cold, wet, or windy it might be!

Date:

Astronomy

Mar. 31, 2013 Rise Set
Actual Time 5:37 AM AWST 5:25 PM AWST
Civil Twilight 5:13 AM AWST 5:49 PM AWST
Nautical Twilight 4:45 AM AWST 6:17 PM AWST
Astronomical Twilight 4:17 AM AWST 6:45 PM AWST
Moon 8:17 PM AWST (3/31) 9:27 AM AWST (3/31)
Length of Visible Light 12h 35m
Length of Day
11h 47m
Waning Gibbous, 82% of the Moon is Illuminated
Mar 31
Waning Gibbous
Apr 3
Last Quarter
Apr 10
New
Apr 18
First Quarter
Apr 26
Full

Hourly Weather History & Observations

Time (AWST) Temp. Dew Point Humidity Pressure Visibility Wind Dir Wind Speed Gust Speed Precip Events Conditions
12:00 AM 55 °F 54 °F 97% 30.17 in - South 6.9 mph - -  
12:00 AM 55.4 °F 53.6 °F 94% 30.15 in - South 6.9 mph - N/A   Unknown
1:00 AM 53.6 °F 53.6 °F 100% 30.15 in - South 5.8 mph - N/A   Unknown
2:00 AM 53 °F 53 °F 99% 30.15 in - SSW 3.5 mph - -  
2:00 AM 53.6 °F 53.6 °F 100% 30.15 in - SSW 3.5 mph - N/A   Unknown
3:00 AM 54 °F 54 °F 100% 30.15 in - West 1.2 mph - -  
3:00 AM 55.4 °F 53.6 °F 94% 30.15 in - West 1.2 mph - N/A   Unknown
4:00 AM 55.4 °F 53.6 °F 94% 30.15 in - WNW 5.8 mph - N/A   Unknown
5:00 AM 56 °F 56 °F 100% 30.17 in - West 6.9 mph - -  
5:00 AM 57.2 °F 55.4 °F 94% 30.18 in - West 6.9 mph - N/A   Unknown
6:00 AM 55 °F 55 °F 100% 30.19 in - WNW 5.8 mph - -  
6:00 AM 55.4 °F 55.4 °F 100% 30.18 in - WNW 5.8 mph - N/A   Unknown
7:00 AM 59.0 °F 59.0 °F 100% 30.18 in - West 4.6 mph - N/A   Unknown
8:00 AM 65 °F 54 °F 58% 30.21 in - SE 2.3 mph - -  
8:00 AM 64.4 °F 53.6 °F 68% 30.21 in - SE 2.3 mph - N/A   Unknown
9:00 AM 68 °F 49 °F 40% 30.21 in - SSE 3.5 mph - -  
9:00 AM 68.0 °F 50.0 °F 52% 30.21 in - SSE 3.5 mph - N/A   Unknown
10:00 AM 69.8 °F 46.4 °F 43% 30.21 in - South 6.9 mph - N/A   Unknown
11:00 AM 71 °F 46 °F 29% 30.18 in - South 9.2 mph - -  
11:00 AM 69.8 °F 46.4 °F 43% 30.18 in - South 9.2 mph - N/A   Unknown
12:00 PM 72 °F 44 °F 25% 30.17 in - SW 10.4 mph - -  
12:00 PM 71.6 °F 44.6 °F 38% 30.15 in - SW 10.4 mph - N/A   Unknown
1:00 PM 73.4 °F 44.6 °F 36% 30.15 in - SSW 6.9 mph - N/A   Unknown
2:00 PM 76 °F 43 °F 20% 30.12 in - SW 6.9 mph - -  
2:00 PM 75.2 °F 42.8 °F 31% 30.12 in - SW 6.9 mph - N/A   Unknown
3:00 PM 78 °F 44 °F 20% 30.12 in - SE 8.1 mph - -  
3:00 PM 78.8 °F 44.6 °F 30% 30.12 in - SE 8.1 mph - N/A   Unknown
4:00 PM 77.0 °F 42.8 °F 29% 30.12 in - ESE 5.8 mph - N/A   Unknown
5:00 PM 75 °F 43 °F 21% 30.12 in - ESE 10.4 mph - -  
5:00 PM 75.2 °F 42.8 °F 31% 30.12 in - ESE 10.4 mph - N/A   Unknown
6:00 PM 71 °F 44 °F 27% 30.13 in - ESE 8.1 mph - -  
6:00 PM 71.6 °F 44.6 °F 38% 30.12 in - ESE 8.1 mph - N/A   Unknown
7:00 PM 68.0 °F 48.2 °F 49% 30.15 in - SE 11.5 mph - N/A   Unknown
8:00 PM 64 °F 50 °F 51% 30.18 in - SE 12.7 mph - -  
8:00 PM 64.4 °F 50.0 °F 59% 30.18 in - SE 12.7 mph - N/A   Unknown
9:00 PM 62 °F 51 °F 57% 30.18 in - SE 11.5 mph - -  
9:00 PM 62.6 °F 50.0 °F 63% 30.18 in - SE 11.5 mph - N/A   Unknown
10:00 PM 59.0 °F 51.8 °F 77% 30.18 in - ESE 8.1 mph - N/A   Unknown
11:00 PM 57 °F 51 °F 74% 30.18 in - East 5.8 mph - -  
11:00 PM 57.2 °F 51.8 °F 82% 30.18 in - East 5.8 mph - N/A   Unknown